QPF
0.00 0.00 0.02 0.01 0.01 0.01 0.00 0.00 0.00 0.00 0.00 0.00 0.01 0.01 0.02 0.01 0.01 0.00 0.00 0.00 0.00 0.00 0.01 0.01 0.01 0.02 0.03 0.03 0.01 0.01 0.00 0.00 0.00 0.00 0.00 0.00 0.00 0.00 0.00 0.00 0.00 0.00 0.00
0.00 0.00 0.01 0.01 0.01 0.00 0.00 0.00 0.00 0.00 0.00 0.00 0.01 0.02 0.02 0.01 0.01 0.00 0.00 0.00 0.00 0.00 0.00 0.01 0.01 0.02 0.02 0.01 0.01 0.00 0.00 0.00 0.00 0.00 0.00 0.00 0.00 0.00 0.00 0.00 0.00 0.00 0.00
0.00 0.00 0.01 0.01 0.00 0.00 0.00 0.00 0.00 0.00 0.00 0.00 0.01 0.01 0.01 0.01 0.00 0.00 0.00 0.00 0.00 0.00 0.00 0.00 0.00 0.00 0.00 0.00 0.00 0.00 0.00 0.00 0.00 0.00 0.00 0.00 0.00 0.00 0.00 0.00 0.00 0.00 0.00
0.00 0.00 0.00 0.00 0.00 0.00 0.00 0.00 0.00 0.00 0.00 0.00 0.01 0.01 0.00 0.00 0.00 0.00 0.00 0.00 0.00 0.00 0.00 0.00 0.00 0.00 0.00 0.00 0.00 0.00 0.00 0.00 0.00 0.00 0.00 0.00 0.00 0.00 0.00 0.00 0.00 0.00 0.00
0.00 0.00 0.00 0.00 0.00 0.01 0.00 0.00 0.00 0.00 0.00 0.00 0.00 0.00 0.00 0.00 0.00 0.00 0.00 0.00 0.00 0.00 0.00 0.00 0.00 0.00 0.00 0.00 0.00 0.00 0.00 0.00 0.00 0.00 0.00 0.00 0.00 0.00 0.00 0.01 0.01 0.01 0.00
0.00 0.00 0.00 0.00 0.00 0.01 0.00 0.00 0.00 0.00 0.00 0.00 0.00 0.00 0.00 0.01 0.02 0.01 0.00 0.00 0.00 0.00 0.00 0.00 0.00 0.00 0.00 0.00 0.00 0.00 0.00 0.00 0.00 0.00 0.00 0.00 0.00 0.00 0.00 0.00 0.01 0.01 0.00
0.00 0.00 0.00 0.00 0.01 0.01 0.00 0.00 0.00 0.00 0.00 0.00 0.00 0.00 0.00 0.01 0.02 0.02 0.01 0.00 0.00 0.00 0.00 0.00 0.00 0.00 0.00 0.00 0.00 0.00 0.00 0.00 0.00 0.00 0.00 0.00 0.00 0.00 0.00 0.00 0.00 0.00 0.00
0.00 0.00 0.00 0.00 0.01 0.01 0.01 0.00 0.00 0.00 0.00 0.00 0.00 0.00 0.00 0.00 0.01 0.02 0.01 0.00 0.00 0.00 0.00 0.00 0.00 0.00 0.00 0.00 0.00 0.00 0.00 0.00 0.00 0.00 0.00 0.00 0.00 0.00 0.00 0.00 0.00 0.00 0.00
0.00 0.00 0.00 0.00 0.00 0.01 0.00 0.00 0.00 0.00 0.00 0.00 0.00 0.00 0.00 0.00 0.01 0.01 0.01 0.00 0.00 0.00 0.00 0.00 0.00 0.00 0.00 0.00 0.00 0.00 0.00 0.00 0.00 0.00 0.00 0.00 0.00 0.00 0.00 0.00 0.01 0.01 0.01
0.00 0.00 0.00 0.00 0.00 0.00 0.00 0.00 0.00 0.00 0.00 0.00 0.00 0.00 0.00 0.00 0.00 0.01 0.00 0.00 0.00 0.00 0.00 0.00 0.00 0.00 0.00 0.00 0.00 0.00 0.00 0.00 0.00 0.00 0.00 0.00 0.00 0.00 0.01 0.02 0.03 0.03 0.03
0.00 0.00 0.00 0.00 0.00 0.00 0.00 0.00 0.00 0.00 0.00 0.00 0.00 0.00 0.00 0.00 0.00 0.00 0.00 0.00 0.00 0.00 0.00 0.00 0.00 0.00 0.00 0.00 0.00 0.00 0.00 0.00 0.00 0.00 0.00 0.00 0.00 0.00 0.02 0.03 0.05 0.05 0.05
0.00 0.00 0.00 0.00 0.00 0.00 0.00 0.00 0.00 0.00 0.00 0.00 0.00 0.00 0.00 0.00 0.00 0.00 0.00 0.00 0.00 0.00 0.00 0.00 0.00 0.00 0.00 0.00 0.00 0.00 0.00 0.00 0.00 0.00 0.00 0.00 0.00 0.00 0.01 0.02 0.03 0.03 0.04
0.00 0.00 0.00 0.00 0.00 0.00 0.00 0.00 0.00 0.00 0.00 0.00 0.00 0.00 0.00 0.00 0.00 0.00 0.00 0.00 0.00 0.00 0.00 0.00 0.00 0.00 0.00 0.00 0.00 0.00 0.00 0.00 0.00 0.00 0.00 0.00 0.00 0.00 0.00 0.00 0.01 0.01 0.01
0.00 0.00 0.00 0.00 0.00 0.00 0.00 0.00 0.00 0.00 0.00 0.00 0.00 0.00 0.00 0.00 0.00 0.00 0.00 0.00 0.00 0.00 0.00 0.00 0.00 0.00 0.00 0.00 0.00 0.00 0.00 0.00 0.00 0.00 0.00 0.00 0.00 0.00 0.00 0.00 0.00 0.00 0.00
0.00 0.00 0.00 0.00 0.00 0.00 0.00 0.00 0.00 0.00 0.00 0.00 0.00 0.00 0.00 0.00 0.00 0.00 0.00 0.00 0.00 0.00 0.00 0.00 0.00 0.00 0.00 0.00 0.00 0.00 0.00 0.00 0.00 0.00 0.00 0.00 0.00 0.00 0.00 0.00 0.00 0.00 0.00
0.00 0.00 0.00 0.00 0.00 0.00 0.00 0.00 0.00 0.00 0.00 0.00 0.00 0.00 0.00 0.00 0.00 0.00 0.00 0.00 0.00 0.00 0.00 0.00 0.00 0.00 0.00 0.00 0.00 0.00 0.00 0.00 0.00 0.00 0.00 0.00 0.00 0.00 0.00 0.00 0.00 0.00 0.00
0.00 0.00 0.00 0.00 0.00 0.00 0.00 0.00 0.00 0.00 0.00 0.00 0.00 0.00 0.00 0.00 0.00 0.00 0.00 0.00 0.00 0.00 0.00 0.00 0.00 0.00 0.00 0.00 0.00 0.00 0.00 0.00 0.00 0.00 0.00 0.00 0.00 0.00 0.00 0.00 0.00 0.00 0.00
0.00 0.00 0.00 0.00 0.00 0.00 0.00 0.00 0.00 0.00 0.00 0.00 0.00 0.00 0.00 0.00 0.00 0.00 0.00 0.00 0.00 0.00 0.00 0.00 0.00 0.00 0.00 0.00 0.00 0.00 0.00 0.00 0.00 0.00 0.00 0.00 0.00 0.00 0.00 0.00 0.00 0.00 0.00
0.00 0.00 0.00 0.00 0.00 0.00 0.00 0.00 0.00 0.00 0.00 0.00 0.00 0.00 0.00 0.00 0.00 0.00 0.00 0.00 0.00 0.00 0.00 0.00 0.00 0.00 0.00 0.00 0.00 0.00 0.00 0.00 0.00 0.00 0.00 0.00 0.00 0.00 0.00 0.00 0.00 0.00 0.00
0.00 0.00 0.00 0.00 0.00 0.00 0.00 0.00 0.00 0.01 0.01 0.00 0.00 0.00 0.00 0.00 0.00 0.00 0.00 0.00 0.00 0.00 0.00 0.00 0.00 0.00 0.00 0.00 0.00 0.00 0.00 0.00 0.00 0.00 0.00 0.00 0.00 0.00 0.00 0.00 0.00 0.00 0.00
0.00 0.00 0.00 0.00 0.00 0.00 0.00 0.00 0.01 0.01 0.01 0.00 0.00 0.00 0.00 0.00 0.00 0.00 0.00 0.00 0.00 0.00 0.00 0.00 0.00 0.00 0.00 0.00 0.00 0.00 0.00 0.00 0.00 0.00 0.00 0.00 0.00 0.00 0.00 0.00 0.00 0.00 0.00
0.00 0.00 0.00 0.00 0.00 0.00 0.00 0.00 0.01 0.01 0.01 0.00 0.00 0.00 0.00 0.00 0.00 0.00 0.00 0.00 0.00 0.00 0.00 0.00 0.00 0.00 0.00 0.00 0.00 0.00 0.00 0.00 0.00 0.00 0.00 0.00 0.00 0.00 0.00 0.00 0.00 0.00 0.00
0.00 0.00 0.00 0.00 0.00 0.00 0.00 0.00 0.01 0.01 0.01 0.00 0.00 0.00 0.00 0.00 0.00 0.00 0.00 0.00 0.00 0.00 0.00 0.00 0.00 0.00 0.00 0.00 0.00 0.00 0.00 0.00 0.00 0.00 0.00 0.00 0.00 0.00 0.00 0.00 0.00 0.00 0.00
0.00 0.00 0.00 0.00 0.00 0.00 0.00 0.00 0.00 0.01 0.00 0.00 0.00 0.00 0.00 0.00 0.00 0.00 0.00 0.00 0.00 0.00 0.00 0.00 0.00 0.00 0.00 0.00 0.00 0.00 0.00 0.00 0.00 0.00 0.00 0.00 0.00 0.00 0.00 0.00 0.00 0.00 0.00
0.00 0.00 0.00 0.00 0.00 0.00 0.00 0.00 0.00 0.00 0.00 0.00 0.00 0.00 0.00 0.00 0.00 0.00 0.00 0.00 0.00 0.00 0.00 0.00 0.00 0.00 0.00 0.00 0.00 0.00 0.00 0.00 0.00 0.00 0.00 0.00 0.00 0.00 0.00 0.00 0.00 0.00 0.00
0.00 0.00 0.00 0.00 0.00 0.00 0.00 0.00 0.00 0.00 0.00 0.00 0.00 0.00 0.00 0.00 0.00 0.00 0.00 0.00 0.00 0.00 0.00 0.00 0.00 0.00 0.00 0.00 0.00 0.00 0.00 0.00 0.00 0.00 0.00 0.00 0.00 0.00 0.00 0.00 0.00 0.00 0.00
MSLP
1011.20 1010.93 1010.84 1010.96 1011.26 1011.68 1012.14 1012.56 1012.89 1013.10 1013.21 1013.26 1013.31 1013.41 1013.58 1013.82 1014.11 1014.40 1014.63 1014.78 1014.83 1014.80 1014.73 1014.66 1014.63 1014.67 1014.79 1014.97 1015.18 1015.40 1015.60 1015.77 1015.90 1015.99 1016.05 1016.08 1016.09 1016.07 1016.01 1015.91 1015.79 1015.66 1015.55
1011.00 1010.78 1010.73 1010.89 1011.22 1011.67 1012.16 1012.62 1012.98 1013.22 1013.36 1013.44 1013.51 1013.62 1013.79 1014.03 1014.31 1014.60 1014.83 1014.99 1015.07 1015.07 1015.03 1014.97 1014.95 1014.98 1015.06 1015.19 1015.35 1015.51 1015.66 1015.78 1015.89 1015.97 1016.04 1016.08 1016.09 1016.06 1015.98 1015.87 1015.72 1015.58 1015.45
1010.75 1010.59 1010.60 1010.81 1011.18 1011.67 1012.19 1012.68 1013.08 1013.35 1013.52 1013.62 1013.71 1013.81 1013.98 1014.20 1014.46 1014.73 1014.96 1015.13 1015.22 1015.26 1015.25 1015.23 1015.23 1015.25 1015.31 1015.39 1015.49 1015.59 1015.68 1015.77 1015.85 1015.93 1015.99 1016.04 1016.05 1016.02 1015.94 1015.81 1015.66 1015.50 1015.38
1010.47 1010.39 1010.48 1010.74 1011.16 1011.69 1012.24 1012.75 1013.17 1013.47 1013.66 1013.78 1013.87 1013.97 1014.11 1014.31 1014.54 1014.78 1014.99 1015.16 1015.28 1015.34 1015.37 1015.39 1015.40 1015.43 1015.47 1015.52 1015.57 1015.63 1015.68 1015.73 1015.79 1015.85 1015.91 1015.96 1015.97 1015.94 1015.86 1015.73 1015.57 1015.42 1015.30
1010.22 1010.24 1010.40 1010.72 1011.18 1011.73 1012.30 1012.82 1013.24 1013.55 1013.75 1013.88 1013.97 1014.06 1014.19 1014.36 1014.56 1014.77 1014.96 1015.13 1015.25 1015.33 1015.39 1015.44 1015.48 1015.51 1015.55 1015.57 1015.59 1015.61 1015.63 1015.66 1015.70 1015.75 1015.80 1015.84 1015.85 1015.81 1015.72 1015.59 1015.43 1015.28 1015.18
1010.06 1010.16 1010.39 1010.77 1011.26 1011.81 1012.37 1012.87 1013.28 1013.58 1013.79 1013.91 1014.01 1014.11 1014.23 1014.38 1014.55 1014.73 1014.90 1015.05 1015.17 1015.27 1015.34 1015.40 1015.46 1015.50 1015.53 1015.55 1015.55 1015.55 1015.55 1015.56 1015.58 1015.62 1015.66 1015.68 1015.67 1015.61 1015.51 1015.37 1015.21 1015.07 1014.96
1010.03 1010.20 1010.48 1010.89 1011.38 1011.92 1012.44 1012.91 1013.29 1013.57 1013.77 1013.90 1014.02 1014.13 1014.26 1014.40 1014.56 1014.72 1014.87 1014.99 1015.10 1015.19 1015.26 1015.33 1015.39 1015.44 1015.47 1015.48 1015.48 1015.47 1015.45 1015.45 1015.46 1015.47 1015.49 1015.48 1015.44 1015.35 1015.22 1015.06 1014.89 1014.74 1014.64
1010.13 1010.34 1010.66 1011.07 1011.55 1012.04 1012.51 1012.93 1013.26 1013.52 1013.71 1013.87 1014.01 1014.15 1014.30 1014.46 1014.62 1014.76 1014.89 1014.99 1015.07 1015.14 1015.20 1015.26 1015.32 1015.37 1015.40 1015.41 1015.41 1015.39 1015.37 1015.35 1015.34 1015.33 1015.31 1015.27 1015.18 1015.05 1014.87 1014.68 1014.49 1014.33 1014.22
1010.31 1010.55 1010.88 1011.27 1011.71 1012.15 1012.57 1012.92 1013.22 1013.46 1013.65 1013.83 1014.01 1014.19 1014.38 1014.56 1014.73 1014.87 1014.98 1015.06 1015.11 1015.16 1015.20 1015.25 1015.29 1015.33 1015.36 1015.38 1015.37 1015.35 1015.33 1015.30 1015.26 1015.22 1015.16 1015.07 1014.92 1014.74 1014.51 1014.28 1014.05 1013.87 1013.75
1010.52 1010.76 1011.07 1011.45 1011.84 1012.23 1012.59 1012.90 1013.16 1013.38 1013.59 1013.80 1014.02 1014.25 1014.49 1014.70 1014.89 1015.03 1015.12 1015.18 1015.22 1015.24 1015.26 1015.29 1015.33 1015.37 1015.40 1015.41 1015.40 1015.38 1015.35 1015.30 1015.24 1015.17 1015.06 1014.92 1014.72 1014.48 1014.20 1013.92 1013.66 1013.45 1013.31
1010.65 1010.88 1011.19 1011.53 1011.89 1012.24 1012.55 1012.83 1013.07 1013.30 1013.53 1013.78 1014.04 1014.32 1014.59 1014.84 1015.04 1015.19 1015.28 1015.33 1015.35 1015.36 1015.38 1015.41 1015.44 1015.48 1015.51 1015.52 1015.51 1015.48 1015.43 1015.37 1015.29 1015.18 1015.04 1014.85 1014.61 1014.33 1014.01 1013.68 1013.38 1013.14 1012.98
1010.65 1010.86 1011.15 1011.48 1011.82 1012.14 1012.43 1012.70 1012.95 1013.20 1013.46 1013.74 1014.05 1014.37 1014.67 1014.93 1015.15 1015.30 1015.40 1015.45 1015.48 1015.50 1015.53 1015.57 1015.61 1015.66 1015.69 1015.70 1015.68 1015.64 1015.57 1015.49 1015.39 1015.26 1015.10 1014.89 1014.62 1014.32 1013.97 1013.62 1013.30 1013.03 1012.83
1010.46 1010.66 1010.93 1011.25 1011.59 1011.91 1012.21 1012.50 1012.77 1013.05 1013.35 1013.68 1014.02 1014.36 1014.68 1014.97 1015.19 1015.35 1015.46 1015.53 1015.58 1015.63 1015.69 1015.76 1015.83 1015.88 1015.92 1015.92 1015.89 1015.83 1015.75 1015.64 1015.53 1015.39 1015.22 1015.01 1014.76 1014.46 1014.12 1013.77 1013.43 1013.14 1012.91
1010.07 1010.27 1010.54 1010.86 1011.20 1011.55 1011.89 1012.21 1012.53 1012.87 1013.21 1013.58 1013.95 1014.31 1014.64 1014.93 1015.16 1015.34 1015.47 1015.57 1015.67 1015.76 1015.86 1015.97 1016.07 1016.14 1016.18 1016.17 1016.12 1016.04 1015.93 1015.81 1015.68 1015.54 1015.39 1015.21 1014.99 1014.73 1014.43 1014.11 1013.77 1013.46 1013.20
1009.55 1009.73 1010.00 1010.33 1010.70 1011.08 1011.47 1011.86 1012.25 1012.64 1013.04 1013.44 1013.84 1014.22 1014.56 1014.85 1015.10 1015.29 1015.46 1015.60 1015.75 1015.90 1016.05 1016.20 1016.33 1016.42 1016.45 1016.43 1016.36 1016.24 1016.10 1015.96 1015.82 1015.70 1015.58 1015.45 1015.29 1015.10 1014.86 1014.58 1014.27 1013.96 1013.67
1008.96 1009.13 1009.39 1009.73 1010.13 1010.56 1011.01 1011.47 1011.93 1012.40 1012.86 1013.31 1013.74 1014.13 1014.49 1014.79 1015.05 1015.27 1015.47 1015.67 1015.86 1016.07 1016.27 1016.46 1016.62 1016.71 1016.74 1016.69 1016.58 1016.43 1016.26 1016.10 1015.96 1015.85 1015.77 1015.69 1015.61 1015.49 1015.33 1015.12 1014.85 1014.55 1014.24
1008.41 1008.55 1008.80 1009.15 1009.57 1010.04 1010.56 1011.10 1011.64 1012.19 1012.72 1013.22 1013.68 1014.10 1014.47 1014.79 1015.07 1015.33 1015.57 1015.81 1016.06 1016.31 1016.55 1016.77 1016.93 1017.03 1017.03 1016.96 1016.82 1016.63 1016.43 1016.25 1016.10 1016.00 1015.95 1015.92 1015.91 1015.86 1015.77 1015.62 1015.40 1015.12 1014.80
1007.96 1008.08 1008.31 1008.65 1009.09 1009.60 1010.18 1010.79 1011.42 1012.04 1012.64 1013.20 1013.71 1014.16 1014.55 1014.90 1015.21 1015.50 1015.77 1016.06 1016.34 1016.63 1016.89 1017.12 1017.29 1017.37 1017.36 1017.26 1017.09 1016.88 1016.65 1016.44 1016.28 1016.18 1016.14 1016.14 1016.16 1016.16 1016.13 1016.03 1015.86 1015.60 1015.27
1007.66 1007.75 1007.96 1008.29 1008.74 1009.28 1009.91 1010.59 1011.29 1011.99 1012.65 1013.27 1013.83 1014.31 1014.74 1015.12 1015.46 1015.78 1016.09 1016.41 1016.72 1017.02 1017.29 1017.52 1017.67 1017.74 1017.72 1017.61 1017.42 1017.19 1016.95 1016.72 1016.54 1016.42 1016.36 1016.35 1016.36 1016.38 1016.37 1016.30 1016.15 1015.91 1015.59
1007.49 1007.57 1007.76 1008.09 1008.54 1009.11 1009.78 1010.51 1011.28 1012.04 1012.76 1013.43 1014.03 1014.56 1015.02 1015.43 1015.81 1016.16 1016.50 1016.83 1017.15 1017.45 1017.72 1017.94 1018.08 1018.15 1018.12 1018.01 1017.83 1017.60 1017.36 1017.12 1016.91 1016.74 1016.64 1016.57 1016.55 1016.53 1016.49 1016.41 1016.27 1016.04 1015.73
1007.43 1007.51 1007.70 1008.02 1008.48 1009.08 1009.78 1010.55 1011.37 1012.17 1012.95 1013.66 1014.29 1014.86 1015.35 1015.80 1016.20 1016.57 1016.93 1017.27 1017.60 1017.89 1018.15 1018.35 1018.49 1018.56 1018.55 1018.46 1018.31 1018.11 1017.88 1017.63 1017.40 1017.18 1016.99 1016.84 1016.72 1016.62 1016.52 1016.40 1016.23 1016.00 1015.70
1007.39 1007.51 1007.71 1008.05 1008.53 1009.14 1009.87 1010.68 1011.53 1012.37 1013.17 1013.91 1014.58 1015.17 1015.69 1016.16 1016.59 1016.98 1017.36 1017.70 1018.02 1018.30 1018.55 1018.74 1018.88 1018.96 1018.98 1018.94 1018.84 1018.69 1018.49 1018.25 1017.99 1017.71 1017.43 1017.17 1016.92 1016.70 1016.49 1016.29 1016.07 1015.83 1015.53
1007.33 1007.50 1007.75 1008.12 1008.63 1009.27 1010.02 1010.86 1011.73 1012.59 1013.41 1014.17 1014.85 1015.46 1016.00 1016.49 1016.94 1017.35 1017.73 1018.08 1018.39 1018.66 1018.89 1019.08 1019.23 1019.33 1019.39 1019.41 1019.38 1019.29 1019.14 1018.92 1018.63 1018.30 1017.92 1017.53 1017.15 1016.78 1016.44 1016.13 1015.85 1015.56 1015.26
1007.19 1007.44 1007.76 1008.18 1008.73 1009.41 1010.19 1011.04 1011.93 1012.80 1013.63 1014.40 1015.09 1015.71 1016.27 1016.78 1017.24 1017.67 1018.05 1018.40 1018.70 1018.96 1019.17 1019.35 1019.51 1019.64 1019.75 1019.83 1019.87 1019.85 1019.75 1019.55 1019.26 1018.88 1018.42 1017.91 1017.38 1016.87 1016.40 1015.97 1015.60 1015.26 1014.93
1006.97 1007.32 1007.73 1008.22 1008.82 1009.53 1010.34 1011.22 1012.12 1013.00 1013.84 1014.61 1015.30 1015.94 1016.51 1017.03 1017.51 1017.94 1018.33 1018.67 1018.96 1019.20 1019.40 1019.57 1019.72 1019.87 1020.02 1020.15 1020.25 1020.29 1020.24 1020.08 1019.80 1019.38 1018.85 1018.25 1017.60 1016.96 1016.35 1015.81 1015.34 1014.94 1014.58
1006.72 1007.18 1007.67 1008.23 1008.89 1009.65 1010.49 1011.39 1012.30 1013.19 1014.03 1014.81 1015.51 1016.15 1016.74 1017.27 1017.76 1018.20 1018.59 1018.92 1019.20 1019.41 1019.59 1019.73 1019.87 1020.02 1020.17 1020.33 1020.47 1020.56 1020.56 1020.43 1020.16 1019.73 1019.16 1018.49 1017.75 1017.01 1016.30 1015.65 1015.10 1014.62 1014.20
Thickness
5751 5754 5753 5750 5747 5744 5742 5739 5737 5735 5733 5732 5730 5728 5726 5725 5724 5723 5723 5722 5722 5722 5723 5723 5724 5723 5722 5720 5719 5718 5716 5715 5714 5713 5712 5711 5710 5710 5711 5711 5710 5709 5709
5756 5753 5750 5748 5744 5742 5739 5736 5733 5731 5729 5728 5726 5724 5723 5721 5720 5720 5720 5719 5719 5718 5719 5719 5719 5719 5718 5717 5715 5714 5713 5712 5711 5709 5708 5707 5707 5707 5708 5708 5707 5706 5706
5753 5750 5748 5745 5741 5738 5735 5732 5730 5728 5726 5724 5723 5721 5719 5717 5716 5716 5716 5715 5715 5714 5714 5714 5714 5714 5713 5712 5711 5710 5710 5709 5708 5706 5705 5704 5704 5704 5705 5705 5705 5703 5703
5749 5747 5744 5741 5738 5735 5732 5729 5726 5724 5722 5720 5719 5717 5716 5714 5713 5712 5712 5711 5711 5710 5709 5709 5709 5708 5708 5707 5707 5706 5706 5705 5704 5702 5701 5701 5700 5700 5701 5702 5702 5701 5701
5745 5743 5740 5737 5734 5731 5728 5725 5722 5720 5718 5716 5715 5714 5713 5711 5710 5709 5708 5707 5707 5706 5705 5705 5704 5704 5703 5703 5702 5702 5701 5701 5700 5698 5697 5697 5696 5696 5697 5698 5699 5698 5697
5739 5738 5736 5733 5730 5727 5724 5721 5718 5716 5714 5713 5711 5710 5709 5708 5707 5707 5705 5704 5703 5702 5701 5701 5700 5699 5698 5698 5698 5698 5697 5696 5695 5694 5694 5693 5693 5692 5693 5694 5695 5695 5694
5734 5733 5731 5729 5726 5723 5720 5717 5714 5712 5711 5709 5708 5706 5706 5705 5704 5703 5702 5700 5699 5697 5697 5696 5696 5695 5695 5694 5694 5693 5693 5692 5691 5690 5690 5689 5689 5689 5689 5690 5690 5690 5690
5730 5728 5727 5725 5723 5720 5717 5714 5711 5709 5707 5706 5704 5703 5703 5702 5701 5701 5699 5697 5695 5693 5692 5692 5692 5691 5690 5690 5689 5689 5688 5687 5687 5686 5686 5685 5685 5684 5685 5686 5686 5686 5686
5725 5724 5723 5721 5719 5716 5713 5710 5707 5705 5704 5703 5701 5700 5699 5699 5698 5698 5696 5693 5692 5690 5689 5688 5687 5687 5686 5685 5685 5684 5684 5683 5683 5682 5682 5681 5680 5680 5681 5683 5683 5683 5683
5719 5719 5719 5717 5715 5712 5709 5706 5704 5702 5700 5699 5698 5697 5696 5695 5694 5694 5692 5690 5689 5687 5685 5684 5683 5683 5682 5681 5680 5680 5679 5679 5678 5677 5677 5676 5676 5676 5677 5678 5678 5678 5679
5714 5714 5714 5713 5711 5708 5706 5703 5701 5699 5697 5696 5694 5693 5692 5691 5690 5689 5688 5687 5685 5683 5682 5681 5680 5679 5677 5677 5676 5675 5674 5673 5672 5671 5670 5670 5670 5671 5672 5672 5672 5672 5672
5710 5711 5711 5710 5707 5705 5702 5700 5698 5696 5694 5692 5690 5689 5687 5686 5685 5684 5684 5683 5681 5680 5678 5676 5675 5673 5672 5670 5669 5668 5667 5666 5665 5664 5663 5663 5664 5664 5664 5664 5664 5664 5664
5709 5709 5709 5707 5705 5701 5699 5696 5694 5693 5691 5689 5687 5685 5683 5682 5681 5680 5679 5677 5676 5675 5673 5670 5668 5666 5664 5663 5661 5660 5659 5658 5657 5656 5655 5655 5655 5656 5655 5655 5655 5655 5655
5704 5706 5707 5705 5702 5699 5696 5693 5691 5689 5687 5685 5683 5681 5679 5678 5676 5674 5673 5671 5670 5668 5666 5663 5661 5658 5656 5654 5653 5652 5651 5649 5648 5647 5646 5646 5646 5646 5645 5644 5643 5643 5643
5702 5704 5704 5702 5700 5697 5693 5690 5688 5686 5684 5682 5679 5678 5676 5674 5671 5669 5667 5665 5663 5660 5658 5655 5652 5650 5648 5646 5644 5643 5642 5641 5640 5638 5637 5636 5635 5634 5634 5633 5632 5631 5631
5701 5703 5703 5701 5699 5695 5691 5688 5686 5683 5681 5678 5676 5674 5673 5670 5667 5664 5660 5657 5654 5651 5649 5646 5644 5642 5640 5638 5636 5635 5634 5632 5630 5629 5627 5625 5624 5622 5621 5620 5620 5620 5620
5701 5702 5701 5700 5697 5693 5690 5686 5683 5680 5677 5674 5672 5670 5668 5665 5661 5657 5652 5649 5645 5643 5641 5639 5636 5634 5633 5631 5629 5627 5625 5623 5621 5619 5617 5614 5612 5610 5609 5607 5607 5607 5607
5698 5699 5699 5699 5695 5691 5688 5683 5679 5675 5672 5669 5667 5665 5662 5659 5654 5649 5645 5640 5637 5635 5633 5631 5628 5626 5623 5621 5620 5619 5616 5614 5611 5609 5606 5603 5600 5597 5596 5594 5593 5593 5594
5694 5695 5695 5695 5692 5688 5683 5678 5674 5669 5666 5663 5661 5659 5655 5650 5646 5642 5637 5632 5629 5627 5625 5622 5618 5616 5613 5611 5611 5611 5608 5604 5601 5599 5595 5592 5589 5586 5583 5581 5579 5579 5579
5688 5689 5690 5689 5686 5682 5676 5671 5665 5660 5656 5654 5652 5650 5646 5642 5638 5635 5629 5624 5621 5618 5614 5612 5608 5605 5602 5599 5601 5600 5598 5595 5592 5588 5585 5581 5578 5575 5572 5569 5567 5564 5564
5680 5682 5682 5681 5678 5676 5671 5665 5658 5651 5646 5644 5642 5640 5637 5634 5630 5626 5620 5615 5611 5608 5603 5601 5598 5594 5590 5588 5586 5585 5586 5584 5581 5578 5574 5569 5565 5563 5560 5556 5552 5549 5548
5673 5674 5674 5673 5671 5670 5667 5663 5655 5646 5639 5635 5632 5629 5627 5624 5621 5616 5611 5605 5601 5598 5593 5589 5586 5581 5575 5572 5567 5565 5564 5568 5569 5569 5563 5559 5554 5550 5544 5538 5534 5533 5531
5665 5667 5669 5666 5664 5662 5659 5654 5646 5638 5631 5625 5621 5617 5615 5613 5610 5606 5601 5596 5591 5587 5582 5577 5573 5567 5561 5556 5551 5547 5543 5541 5544 5553 5551 5546 5540 5534 5528 5523 5521 5518 5516
5659 5659 5660 5659 5657 5655 5653 5650 5646 5638 5627 5619 5613 5608 5604 5602 5599 5595 5590 5586 5581 5576 5571 5566 5560 5554 5548 5541 5536 5532 5526 5522 5519 5529 5536 5532 5527 5521 5515 5512 5508 5505 5502
5652 5652 5652 5651 5649 5646 5645 5643 5640 5630 5620 5609 5604 5599 5595 5591 5588 5584 5580 5575 5569 5564 5558 5552 5547 5540 5534 5528 5522 5517 5512 5507 5502 5498 5509 5514 5512 5507 5501 5497 5495 5491 5487
5644 5644 5644 5643 5640 5638 5636 5634 5631 5622 5612 5602 5595 5590 5585 5581 5577 5573 5568 5563 5558 5552 5546 5539 5533 5527 5521 5515 5509 5503 5498 5492 5487 5481 5482 5491 5494 5494 5489 5485 5481 5475 5470